TimeEST,TemperatureF,Dew PointF,Humidity,Sea Level PressureIn,VisibilityMPH,Wind Direction,Wind SpeedMPH,Gust SpeedMPH,PrecipitationIn,Events,Conditions,WindDirDegrees,DateUTC
12:54 AM,57.9,52.0,81,30.11,8.0,WSW,9.2,-,N/A,,Overcast,250,2013-01-12 05:54:00
2:54 AM,55.9,52.0,87,30.13,4.0,West,8.1,-,N/A,,Overcast,270,2013-01-12 07:54:00
3:11 AM,55.4,51.8,88,30.12,2.5,WSW,5.8,-,N/A,,Overcast,250,2013-01-12 08:11:00
3:40 AM,55.4,51.8,88,30.12,1.2,WSW,8.1,-,N/A,,Overcast,240,2013-01-12 08:40:00
3:54 AM,55.9,52.0,87,30.12,1.0,WSW,9.2,-,N/A,,Overcast,240,2013-01-12 08:54:00
4:54 AM,55.9,52.0,87,30.11,1.2,West,6.9,-,N/A,,Overcast,260,2013-01-12 09:54:00
5:54 AM,55.9,52.0,87,30.11,1.2,West,4.6,-,N/A,,Overcast,260,2013-01-12 10:54:00
6:16 AM,55.4,51.8,88,30.12,2.5,West,4.6,-,N/A,,Overcast,270,2013-01-12 11:16:00
6:41 AM,55.4,51.8,88,30.13,1.2,West,3.5,-,N/A,,Overcast,280,2013-01-12 11:41:00
6:54 AM,55.9,52.0,87,30.13,0.8,NW,4.6,-,N/A,,Overcast,310,2013-01-12 11:54:00
7:36 AM,55.4,51.8,88,30.14,0.2,Calm,Calm,-,N/A,Fog,Fog,0,2013-01-12 12:36:00
7:54 AM,55.9,52.0,87,30.14,0.2,Calm,Calm,-,N/A,Fog,Fog,0,2013-01-12 12:54:00
8:54 AM,53.1,48.9,86,30.16,0.2,East,8.1,-,N/A,Fog,Fog,80,2013-01-12 13:54:00
9:54 AM,51.1,46.9,86,30.17,0.2,East,5.8,-,N/A,Fog,Fog,80,2013-01-12 14:54:00
10:14 AM,51.8,46.4,82,30.17,0.5,East,5.8,-,N/A,Fog,Fog,80,2013-01-12 15:14:00
10:44 AM,53.6,48.2,82,30.17,1.2,Calm,Calm,-,N/A,,Overcast,0,2013-01-12 15:44:00
10:54 AM,53.1,48.9,86,30.17,1.8,SSE,3.5,-,N/A,,Overcast,150,2013-01-12 15:54:00
11:01 AM,53.6,48.2,82,30.17,2.5,Calm,Calm,-,N/A,,Haze,0,2013-01-12 16:01:00
11:17 AM,53.6,50.0,88,30.17,1.2,Calm,Calm,-,N/A,,Overcast,0,2013-01-12 16:17:00
11:43 AM,55.4,51.8,88,30.15,3.0,Calm,Calm,-,N/A,,Haze,0,2013-01-12 16:43:00
11:54 AM,55.9,52.0,87,30.14,3.0,Calm,Calm,-,N/A,,Overcast,0,2013-01-12 16:54:00
12:40 PM,57.2,51.8,82,30.13,5.0,ENE,8.1,-,N/A,,Haze,70,2013-01-12 17:40:00
12:54 PM,53.1,48.0,83,30.13,5.0,ENE,8.1,-,N/A,,Haze,70,2013-01-12 17:54:00
1:54 PM,53.1,46.9,80,30.14,6.0,East,5.8,-,N/A,,Haze,80,2013-01-12 18:54:00
2:54 PM,52.0,46.0,80,30.14,8.0,East,8.1,-,N/A,,Overcast,80,2013-01-12 19:54:00
3:29 PM,50.0,44.6,82,30.14,5.0,East,5.8,-,N/A,,Haze,80,2013-01-12 20:29:00
3:44 PM,50.0,44.6,82,30.14,2.5,ENE,4.6,-,N/A,,Haze,70,2013-01-12 20:44:00
3:54 PM,50.0,45.0,83,30.14,3.0,ENE,3.5,-,N/A,,Haze,60,2013-01-12 20:54:00
4:10 PM,50.0,46.4,87,30.15,2.0,ENE,3.5,-,N/A,,Overcast,60,2013-01-12 21:10:00
4:22 PM,50.0,46.4,87,30.15,1.5,Calm,Calm,-,N/A,,Overcast,0,2013-01-12 21:22:00
4:54 PM,51.1,46.0,83,30.15,1.5,NE,3.5,-,N/A,,Haze,40,2013-01-12 21:54:00
5:54 PM,51.1,46.0,83,30.15,0.8,Variable,4.6,-,N/A,,Haze,0,2013-01-12 22:54:00
6:54 PM,50.0,46.0,86,30.14,0.5,ENE,3.5,-,N/A,Fog,Fog,60,2013-01-12 23:54:00
7:28 PM,50.0,46.4,87,30.15,0.2,Calm,Calm,-,N/A,Fog,Fog,0,2013-01-13 00:28:00
7:54 PM,50.0,46.0,86,30.14,0.2,ENE,4.6,-,N/A,Fog,Fog,60,2013-01-13 00:54:00
8:54 PM,50.0,46.0,86,30.15,0.2,ENE,4.6,-,0.01,Fog,Fog,70,2013-01-13 01:54:00
9:10 PM,50.0,46.4,87,30.15,0.5,East,4.6,-,N/A,Fog,Fog,80,2013-01-13 02:10:00
9:54 PM,50.0,46.9,89,30.15,0.5,Calm,Calm,-,N/A,Fog,Fog,0,2013-01-13 02:54:00
10:07 PM,50.0,46.4,87,30.15,0.2,Calm,Calm,-,N/A,Fog,Fog,0,2013-01-13 03:07:00
10:54 PM,50.0,46.0,86,30.15,0.2,Calm,Calm,-,N/A,Fog,Fog,0,2013-01-13 03:54:00
11:54 PM,51.1,46.9,86,30.15,0.2,East,3.5,-,N/A,Fog,Fog,100,2013-01-13 04:54:00